Regional Weather Roundup
Issued by NWS

Home | Current Version | Previous Version | Text Only | Print | Product List | Glossary Off
Versions: 1 2 3 4 5 6 7 8 9 10 11 12 13 14 15 16 17 18 19 20 21 22 23 24 25 26 27 28 29 30 31 32 33 34 35 36 37 38 39 40 41 42 43 44 45 46 47 48 49 50

000
ASUS43 KDMX 250701
RWRIA

WEATHER ROUNDUP FOR IOWA
NATIONAL WEATHER SERVICE DES MOINES IA
200 AM CDT WED APR 25 2018

NOTE: "FAIR" INDICATES FEW OR NO CLOUDS BELOW 12,000 FEET WITH NO
SIGNIFICANT WEATHER AND/OR OBSTRUCTIONS TO VISIBILITY.

* - THESE STATIONS ARE NOT NWS STATIONS...THUS NOT UNDER NWS
QUALITY CONTROL.  THEY ALSO DO NOT REPORT WEATHER SUCH
AS PRECIPITATION OR FOG.

IAZ001>003-012>014-020>022-031>034-043>046-250800-
   NORTHWEST IOWA

CITY           SKY/WX    TMP DP  RH WIND       PRES   REMARKS
CARROLL *      CLOUDY    46  43  87 N9        30.21S
CHEROKEE *     CLOUDY    43  37  79 N7        30.26R
DENISON *      CLOUDY    46  43  87 N7        30.24R
ORANGE CITY *  PTCLDY    39  37  93 N9        30.27S WCI  33
SHELDON *      MOCLDY    37  34  87 N13       30.25S WCI  29
SIOUX CITY     CLOUDY    45  39  79 N12       30.28R
SPENCER        CLOUDY    41  34  76 N13       30.24F
STORM LAKE *   CLOUDY    43  39  87 N14       30.23F
$$

IAZ055>058-069>071-079>083-090>094-250800-
   SOUTHWEST IOWA

CITY           SKY/WX    TMP DP  RH WIND       PRES   REMARKS
ATLANTIC *     CLOUDY    46  46 100 NE10      30.20R
AUDUBON *      LGT RAIN  46  43  87 N6        30.21S
CRESTON *      LGT RAIN  48  45  87 N16       30.18S
HARLAN  *      CLOUDY    46  46 100 N10       30.25R
LAMONI         CLOUDY    52  42  69 N15G23    30.14R
RED OAK *      LGT RAIN  48  46  93 N12       30.19R
SHENANDOAH *   CLOUDY    50  46  87 N10       30.19F
$$

IAZ047>049-059>061-072>074-084-250800-
   CENTRAL IOWA

CITY           SKY/WX    TMP DP  RH WIND       PRES   REMARKS
AMES           CLOUDY    51  41  68 N17       30.18R
ANKENY *       CLOUDY    52  41  66 N15       30.19R
BOONE *        CLOUDY    48  43  81 N10       30.18R
CHARITON *     CLOUDY    54  41  62 N16       30.15R
DES MOINES     CLOUDY    53  42  66 N13       30.18R
GRINNELL*      MOCLDY    49  37  63 N16G23    30.13R
KNOXVILLE *    CLOUDY    54  37  54 N14G20    30.14R
MARSHALLTOWN   CLOUDY    48  39  71 N13       30.15R
NEWTON *       CLOUDY    50  37  62 N15G21    30.15R
PELLA *        CLOUDY    53  38  56 N13       30.15R
$$

IAZ004>006-015-016-023>025-035-036-250800-
   NORTH CENTRAL IOWA

CITY           SKY/WX    TMP DP  RH WIND       PRES   REMARKS
ALGONA *       PTCLDY    43  37  81 N10       30.22S
CLARION *      CLOUDY    45  41  87 N7        30.20R
ESTHERVILLE    CLOUDY    35  32  88 NW7       30.24R WCI  29
FORT DODGE *   CLOUDY    46  39  76 N7        30.21F
MASON CITY     MOCLDY    39  35  86 N8        30.21R WCI  33
FOREST CITY *  FAIR      43  37  81 N9        30.21R
WEBSTER CITY * CLOUDY    48  41  76 N13       30.18S
IOWA FALLS *   FAIR      49  39  69 N12G18    30.19R
$$

IAZ007>011-017>019-026>030-037>042-050>054-066-250800-
   NORTHEAST IOWA

CITY           SKY/WX    TMP DP  RH WIND       PRES   REMARKS
CEDAR RAPIDS   FAIR      53  35  50 N15       30.08R
CHARLES CITY * FAIR      45  37  76 N9        30.17S
CLINTON *      FAIR      55  38  52 N17       30.04S
DECORAH *      FAIR      46  34  61 N8        30.14S
DUBUQUE        FAIR      51  32  48 N18G28    30.08R
MONTICELLO *   FAIR      52  36  54 N10       30.07R
OELWEIN *      FAIR      46  36  66 N13G20    30.13R
WATERLOO       FAIR      46  37  71 N9        30.15R
$$

IAZ064-065-067-068-078-250800-
   EAST CENTRAL IOWA

CITY           SKY/WX    TMP DP  RH WIND       PRES   REMARKS
DAVENPORT      FAIR      56  37  49 N17       30.04S
IOWA CITY      FAIR      56  35  45 N21G29    30.08R
MT. PLEASANT * PTCLDY    54  39  58 NW10      30.06R
MUSCATINE *    FAIR      57  37  47 N16G22    30.03F
QUAD CITIES    FAIR      61  40  45 N10       30.00S
$$

IAZ062-063-075>077-085>089-095>099-250800-
   SOUTHEAST IOWA

CITY           SKY/WX    TMP DP  RH WIND       PRES   REMARKS
BURLINGTON     PTCLDY    59  40  49 N16G23    30.01F
FAIRFIELD *    MOCLDY    54  37  54 N16G23    30.07R
FORT MADISON * CLOUDY    55  45  67 NW13      30.04R
KEOKUK *       PTCLDY    57  45  62 NW13      30.03S
OSKALOOSA *    MOCLDY    53  38  57 N14       30.11R
CENTERVILLE *  CLOUDY    55  41  58 NW10      30.13R
OTTUMWA        MOCLDY    54  38  54 N16       30.11R
WASHINGTON *   PTCLDY    54  39  58 N15       30.08R
$$

ABBREVIATIONS USED IN REMARKS
   TC - TEMPERATURES IN CELSIUS
  WCI - WIND CHILL INDEX
   HX - HEAT INDEX
  VSB - VISIBILITY
$$





USA.gov is the U.S. government's official web portal to all federal, state and local government web resources and services.